Weather History for Tarboro, NC

Change the Weather History Date:

Thursday, November 14, 2013

  Actual Average Record
Temperature  
Mean Temperature 39 °F -  
Max Temperature 57 °F 62 °F 81 °F (1955)
Min Temperature 21 °F 36 °F 17 °F (1976)
Degree Days  
Heating Degree Days 26    
Moisture  
Dew Point 23 °F    
Average Humidity 68    
Maximum Humidity 94    
Minimum Humidity 24    
Precipitation  
Precipitation 0.00 in - - ()
Sea Level Pressure  
Sea Level Pressure 30.41 in    
Wind  
Wind Speed 2 mph (SW)    
Max Wind Speed 12 mph    
Max Gust Speed -    
Visibility 10 miles    
Events      
Averages and records for this station are not official NWS values.
T = Trace of Precipitation, MM = Missing Value Source: NWS Daily Summary

Daily Weather History Graph

Daily Weather History Graph

Search for Another Location

Airport:

Trip Planner

Search our weather history database for the weather conditions in past years. The results will help you decide how hot, cold, wet, or windy it might be!

Date:

Astronomy

Nov. 14, 2013 Rise Set
Actual Time 6:45 AM EST 5:03 PM EST
Civil Twilight 6:18 AM EST 5:30 PM EST
Nautical Twilight 5:47 AM EST 6:01 PM EST
Astronomical Twilight 5:17 AM EST 6:31 PM EST
Moon 3:18 PM EST (11/14) 3:44 AM EST (11/14)
Length of Visible Light 11h 11m
Length of Day
10h 17m
Waxing Gibbous, 91% of the Moon is Illuminated
Nov 14
Waxing Gibbous
Nov 17
Full
Nov 25
Last Quarter
Dec 2
New
Dec 9
First Quarter

Hourly Weather History & Observations

Time (EST) Temp. Windchill Dew Point Humidity Pressure Visibility Wind Dir Wind Speed Gust Speed Precip Events Conditions
12:15 AM 23.4 °F - 21.9 °F 94% 30.47 in 10.0 mi Calm Calm - N/A   Clear
12:35 AM 23.4 °F - 21.7 °F 94% 30.46 in 10.0 mi Calm Calm - N/A   Clear
12:55 AM 23.0 °F - 21.2 °F 93% 30.46 in 10.0 mi Calm Calm - N/A   Clear
1:15 AM 22.6 °F - 20.8 °F 93% 30.46 in 10.0 mi Calm Calm - N/A   Clear
1:35 AM 22.6 °F - 20.8 °F 93% 30.46 in 10.0 mi Calm Calm - N/A   Clear
1:55 AM 22.1 °F - 19.9 °F 91% 30.45 in 10.0 mi Calm Calm - N/A   Clear
2:15 AM 22.3 °F - 20.5 °F 93% 30.45 in 10.0 mi Calm Calm - N/A   Clear
2:35 AM 22.3 °F - 20.3 °F 92% 30.45 in 10.0 mi Calm Calm - N/A   Clear
2:55 AM 22.1 °F - 20.1 °F 92% 30.45 in 10.0 mi Calm Calm - N/A   Clear
3:15 AM 21.9 °F - 19.8 °F 91% 30.44 in 10.0 mi Calm Calm - N/A   Clear
3:35 AM 21.6 °F - 19.4 °F 91% 30.44 in 10.0 mi Calm Calm - N/A   Clear
3:55 AM 21.7 °F - 19.8 °F 92% 30.44 in 10.0 mi Calm Calm - N/A   Clear
4:15 AM 21.7 °F - 19.8 °F 92% 30.45 in 10.0 mi Calm Calm - N/A   Clear
4:35 AM 21.4 °F - 19.8 °F 93% 30.44 in 10.0 mi Calm Calm - N/A   Clear
4:55 AM 21.4 °F - 19.8 °F 93% 30.44 in 10.0 mi Calm Calm - N/A   Clear
5:15 AM 21.4 °F - 19.8 °F 93% 30.45 in 10.0 mi Calm Calm - N/A   Clear
5:35 AM 21.4 °F - 19.8 °F 93% 30.45 in 10.0 mi Calm Calm - N/A   Clear
5:55 AM 21.6 °F - 19.9 °F 93% 30.45 in 10.0 mi Calm Calm - N/A   Clear
6:15 AM 21.6 °F - 19.9 °F 93% 30.46 in 10.0 mi Calm Calm - N/A   Clear
6:35 AM 21.4 °F - 19.8 °F 93% 30.46 in 10.0 mi Calm Calm - N/A   Clear
6:55 AM 21.4 °F - 19.8 °F 93% 30.46 in 10.0 mi Calm Calm - N/A   Clear
7:15 AM 21.9 °F - 20.5 °F 94% 30.47 in 10.0 mi Calm Calm - N/A   Clear
7:35 AM 24.4 °F - 23.0 °F 94% 30.47 in 10.0 mi Calm Calm - N/A   Clear
7:55 AM 27.7 °F - 25.5 °F 92% 30.47 in 10.0 mi Calm Calm - N/A   Clear
8:15 AM 32.0 °F - 27.9 °F 85% 30.48 in 10.0 mi Calm Calm - N/A   Clear
8:35 AM 36.0 °F - 27.9 °F 72% 30.48 in 10.0 mi Calm Calm - N/A   Clear
8:55 AM 39.0 °F 35.7 °F 26.8 °F 62% 30.48 in 10.0 mi SW 4.6 mph - N/A   Clear
9:15 AM 41.5 °F 37.8 °F 25.0 °F 52% 30.48 in 10.0 mi SW 5.8 mph - N/A   Clear
9:35 AM 43.5 °F 39.4 °F 24.1 °F 46% 30.48 in 10.0 mi SW 6.9 mph - N/A   Clear
9:55 AM 45.3 °F 40.6 °F 22.8 °F 41% 30.48 in 10.0 mi SSW 9.2 mph - N/A   Clear
10:15 AM 47.3 °F - 22.3 °F 37% 30.48 in 10.0 mi SSW 10.4 mph - N/A   Clear
10:35 AM 48.9 °F - 21.0 °F 33% 30.47 in 10.0 mi SSW 9.2 mph - N/A   Clear
10:55 AM 50.0 °F - 20.7 °F 32% 30.46 in 10.0 mi SW 8.1 mph - N/A   Clear
11:15 AM 51.1 °F - 21.4 °F 31% 30.46 in 10.0 mi SW 8.1 mph - N/A   Clear
11:35 AM 52.2 °F - 21.4 °F 30% 30.44 in 10.0 mi SW 5.8 mph - N/A   Clear
11:55 AM 52.9 °F - 20.5 °F 28% 30.43 in 10.0 mi SW 8.1 mph - N/A   Clear
12:15 PM 53.8 °F - 20.5 °F 27% 30.42 in 10.0 mi West 8.1 mph - N/A   Clear
12:35 PM 54.9 °F - 20.5 °F 26% 30.41 in 10.0 mi SSW 9.2 mph - N/A   Clear
12:55 PM 55.4 °F - 19.8 °F 25% 30.40 in 10.0 mi SW 9.2 mph - N/A   Clear
1:15 PM 56.1 °F - 19.8 °F 24% 30.40 in 10.0 mi SSW 11.5 mph - N/A   Clear
1:35 PM 56.3 °F - 19.9 °F 24% 30.39 in 10.0 mi SSW 8.1 mph - N/A   Clear
1:55 PM 57.0 °F - 20.3 °F 24% 30.38 in 10.0 mi SW 5.8 mph - N/A   Clear
2:15 PM 57.2 °F - 20.7 °F 24% 30.38 in 10.0 mi SSW 9.2 mph - N/A   Clear
2:35 PM 57.2 °F - 21.0 °F 25% 30.37 in 10.0 mi SSW 8.1 mph - N/A   Clear
2:55 PM 57.2 °F - 21.4 °F 25% 30.37 in 10.0 mi SW 9.2 mph - N/A   Clear
3:15 PM 57.0 °F - 21.0 °F 25% 30.37 in 10.0 mi SSW 5.8 mph - N/A   Clear
3:35 PM 56.8 °F - 21.4 °F 25% 30.37 in 10.0 mi South 6.9 mph - N/A   Clear
3:55 PM 56.5 °F - 21.6 °F 26% 30.37 in 10.0 mi SSW 5.8 mph - N/A   Clear
4:15 PM 55.8 °F - 21.4 °F 26% 30.37 in 10.0 mi SW 4.6 mph - N/A   Clear
4:35 PM 54.7 °F - 22.1 °F 28% 30.36 in 10.0 mi SW 3.5 mph - N/A   Clear
4:55 PM 52.7 °F - 22.5 °F 31% 30.36 in 10.0 mi SSW 4.6 mph - N/A   Clear
5:15 PM 50.7 °F - 22.5 °F 33% 30.36 in 10.0 mi South 4.6 mph - N/A   Clear
5:35 PM 47.8 °F - 24.1 °F 39% 30.36 in 10.0 mi SSW 3.5 mph - N/A   Clear
5:55 PM 43.3 °F - 29.5 °F 58% 30.36 in 10.0 mi Calm Calm - N/A   Clear
6:15 PM 38.8 °F - 31.1 °F 74% 30.36 in 10.0 mi Calm Calm - N/A   Clear
6:35 PM 36.1 °F - 30.7 °F 81% 30.36 in 10.0 mi Calm Calm - N/A   Clear
6:55 PM 35.1 °F - 30.9 °F 85% 30.36 in 10.0 mi Calm Calm - N/A   Clear
7:15 PM 33.8 °F - 30.2 °F 87% 30.36 in 10.0 mi Calm Calm - N/A   Clear
7:35 PM 32.7 °F - 30.0 °F 90% 30.35 in 7.0 mi Calm Calm - N/A   Clear
7:55 PM 32.9 °F - 29.5 °F 87% 30.35 in 7.0 mi Calm Calm - N/A   Clear
8:15 PM 32.2 °F - 28.9 °F 88% 30.35 in 10.0 mi Calm Calm - N/A   Clear
8:35 PM 30.7 °F - 28.0 °F 90% 30.35 in 10.0 mi Calm Calm - N/A   Clear
8:55 PM 31.3 °F - 28.6 °F 90% 30.35 in 10.0 mi Calm Calm - N/A   Clear
9:15 PM 31.5 °F - 28.8 °F 90% 30.36 in 10.0 mi Calm Calm - N/A   Clear
9:35 PM 31.3 °F - 28.6 °F 90% 30.36 in 10.0 mi Calm Calm - N/A   Clear
9:55 PM 31.3 °F - 28.6 °F 90% 30.36 in 10.0 mi Calm Calm - N/A   Clear
10:15 PM 30.6 °F - 27.7 °F 89% 30.36 in 10.0 mi Calm Calm - N/A   Clear
10:35 PM 29.3 °F - 27.3 °F 92% 30.35 in 10.0 mi Calm Calm - N/A   Clear
10:55 PM 30.0 °F - 27.3 °F 90% 30.35 in 10.0 mi Calm Calm - N/A   Clear
11:15 PM 30.2 °F - 26.8 °F 87% 30.36 in 10.0 mi Calm Calm - N/A   Clear
11:35 PM 29.7 °F - 27.1 °F 90% 30.36 in 10.0 mi Calm Calm - N/A   Clear
11:55 PM 29.1 °F - 27.0 °F 92% 30.36 in 10.0 mi Calm Calm - N/A   Clear